Theta_e
327 326 325 326 330 331 335 336 337 335 339 340 342 341 340 338 337 336 344 344 342 341 339 337 335 334 329 327 325 326 325 322 321 320 319 318 319 318 317 317 317 318 317 315
327 327 329 330 331 330 330 332 332 339 338 339 341 340 338 340 342 340 334 339 344 337 335 335 335 331 328 327 325 323 324 322 320 318 316 317 318 317 316 317 318 320 317 316
328 330 331 328 330 330 331 334 336 340 339 338 340 343 338 340 335 335 334 332 338 336 335 333 329 328 328 326 325 323 322 322 319 316 315 317 318 318 317 317 317 317 316 315
329 331 330 330 331 327 330 337 338 340 339 342 338 347 339 339 337 335 332 332 334 333 331 328 326 327 326 327 325 323 320 319 318 317 315 315 318 317 316 316 316 317 315 317
331 331 331 332 331 330 334 336 337 339 340 342 343 342 341 341 340 339 337 335 330 327 324 322 325 326 325 325 326 322 318 319 317 317 315 313 315 316 315 316 315 315 315 316
328 331 332 331 332 331 331 335 338 335 339 347 345 347 345 345 343 339 339 333 330 326 324 324 326 326 325 324 325 322 319 319 317 317 313 313 315 316 315 316 316 316 316 316
332 329 328 328 328 329 326 327 333 340 346 348 343 345 345 337 338 338 337 332 326 324 323 323 324 325 325 324 323 321 319 319 317 315 314 313 314 316 316 316 316 316 316 317
334 335 332 331 329 329 328 331 336 341 337 343 342 348 343 338 335 336 332 328 326 324 322 323 325 325 326 322 323 321 318 318 317 316 315 314 314 316 317 315 317 316 316 316
337 337 334 330 330 331 334 334 331 330 334 339 346 344 341 337 336 334 331 330 328 324 323 323 325 324 324 321 321 320 317 318 316 317 315 314 316 317 316 316 316 316 316 313
336 340 337 332 331 332 334 332 335 329 335 344 347 348 347 340 338 335 334 332 329 323 322 323 325 323 322 321 320 318 316 317 316 315 314 315 316 316 317 317 316 316 315 313
335 337 339 337 337 336 328 331 332 332 336 338 349 347 342 340 338 335 332 330 325 322 321 323 324 323 322 321 319 317 316 317 317 315 314 315 315 316 317 317 316 314 314 314
336 336 340 338 336 335 336 332 331 331 333 339 342 345 339 339 337 332 331 328 326 323 320 322 323 322 322 321 319 317 316 317 317 315 314 314 315 317 317 318 316 315 314 313
341 334 336 337 336 337 339 331 333 334 336 339 342 342 336 338 337 336 330 330 326 324 322 321 322 322 321 321 319 317 317 316 317 315 315 314 315 316 315 317 316 314 315 313
343 335 339 335 335 333 337 332 332 332 336 333 339 341 342 341 339 337 333 330 324 324 323 321 320 321 321 321 320 317 317 316 316 316 316 315 315 315 314 317 317 315 314 314
337 333 334 338 337 332 329 330 332 330 331 336 342 341 338 339 334 334 332 329 324 324 325 323 320 321 321 320 320 318 317 317 317 316 315 316 316 315 314 316 317 316 315 314
339 341 340 338 337 336 332 331 332 332 333 339 341 341 336 337 334 333 331 326 325 324 325 324 323 322 322 320 321 318 318 318 316 315 315 315 315 315 315 315 316 317 316 314
341 339 338 339 336 339 339 336 334 331 334 336 336 336 331 334 335 331 329 327 325 325 325 325 323 323 322 321 320 318 318 317 316 315 315 315 315 315 315 315 316 317 316 315
346 343 343 340 343 346 338 334 333 334 337 335 337 332 331 331 332 329 328 326 325 323 325 324 324 322 321 321 321 319 319 317 316 315 315 314 315 316 316 316 315 316 317 316
342 347 339 339 341 339 337 334 333 339 343 335 333 331 330 331 331 329 327 325 323 323 324 325 324 323 321 321 321 319 318 316 316 315 316 315 315 316 315 314 316 316 317 317
341 348 343 342 343 338 339 336 334 334 342 332 329 331 332 331 332 332 325 325 324 325 324 324 324 323 322 321 322 320 318 317 316 316 316 316 316 316 317 315 315 316 317 316
341 346 342 340 338 343 339 334 333 336 337 331 328 327 336 339 334 331 326 326 325 324 325 324 324 323 323 322 322 320 319 318 316 316 316 316 316 315 316 315 315 316 317 317
343 346 345 346 343 349 338 338 340 337 333 331 327 334 337 334 332 328 325 323 325 324 324 324 325 323 323 322 321 321 319 318 317 317 317 317 317 315 315 315 315 315 316 317
340 341 342 343 343 339 341 339 339 334 333 331 326 330 335 334 333 327 325 323 324 325 323 324 326 325 323 322 322 322 320 318 317 318 317 317 316 317 316 316 316 314 316 317
341 337 338 342 341 341 343 339 338 337 335 333 331 328 330 330 329 327 325 324 322 325 323 323 325 325 324 323 323 322 321 318 318 318 319 318 318 318 318 317 316 316 315 315
336 337 339 340 340 341 341 339 337 335 334 334 331 329 328 329 331 327 327 326 325 323 323 324 322 324 325 325 323 323 322 320 319 319 319 319 320 317 316 317 318 316 316 316
334 339 341 343 339 340 339 335 336 335 336 334 333 331 329 330 329 329 329 328 325 323 323 322 323 322 322 324 324 323 322 321 320 320 320 320 319 318 317 316 317 316 316 316
Wind_Speed
9 2 7 16 8 5 19 6 6 4 20 10 10 17 10 7 18 7 12 9 11 11 17 20 20 21 20 20 22 21 23 28 29 30 29 27 26 26 26 24 24 18 17 18
6 8 16 3 6 1 6 4 5 12 13 7 9 6 6 5 6 7 12 9 4 8 7 15 20 22 20 19 19 21 22 26 26 27 26 22 23 24 24 27 31 21 22 21
8 13 3 5 7 6 6 9 7 13 13 13 10 8 7 6 3 4 2 1 7 10 8 9 19 22 19 18 17 22 22 23 24 27 28 27 23 22 28 30 29 28 26 25
11 5 3 6 8 8 8 13 17 14 4 5 4 3 5 6 9 4 6 9 6 9 8 12 20 20 18 16 19 21 22 23 22 23 25 26 26 22 24 26 25 23 27 23
4 5 9 7 5 6 5 15 9 6 7 7 6 5 7 7 6 7 8 9 8 9 11 10 21 22 19 15 21 19 23 22 20 19 22 22 24 22 23 25 26 28 26 25
5 8 7 3 7 5 4 6 4 6 5 4 1 4 6 4 8 2 8 6 8 10 11 18 22 20 16 15 18 16 21 20 15 18 23 21 20 21 23 24 25 24 24 25
12 3 7 5 4 5 9 6 4 4 4 4 9 5 8 13 10 12 9 8 9 9 9 9 15 14 14 17 17 17 20 17 14 18 22 21 20 20 22 23 23 22 23 24
3 7 6 4 4 2 6 4 4 3 4 4 10 0 6 9 14 12 8 9 9 10 10 9 17 17 20 20 16 16 17 15 14 18 20 19 19 20 20 20 20 20 20 20
4 5 11 8 3 2 6 5 5 3 1 5 3 4 5 7 14 10 11 10 7 9 11 9 19 21 22 20 21 17 16 15 16 14 15 16 17 19 18 19 18 20 19 24
4 3 16 6 2 2 2 4 5 5 3 4 2 5 6 8 7 8 12 10 6 8 10 10 19 22 21 20 19 19 18 14 13 13 14 15 17 17 16 15 18 17 18 22
11 6 7 9 4 5 7 5 5 2 3 2 4 3 8 16 7 8 9 8 9 9 9 10 19 20 19 18 18 18 16 10 11 11 13 15 17 17 16 12 15 18 17 19
3 5 3 2 6 3 3 5 5 4 6 2 5 4 4 9 6 11 10 9 8 10 9 15 21 20 18 16 16 16 15 11 9 9 12 15 14 16 16 13 14 15 17 19
1 2 3 8 6 5 2 4 5 2 2 3 4 1 7 14 16 8 9 9 8 10 10 11 19 19 16 13 15 15 13 11 5 7 8 12 12 14 16 13 14 13 15 17
8 3 5 6 6 3 4 5 6 5 3 2 4 7 10 9 11 6 3 8 9 10 9 9 13 18 15 11 14 14 12 11 11 5 5 7 10 13 14 11 11 13 14 15
4 2 4 3 8 6 5 4 8 6 5 6 5 7 10 12 15 16 7 8 10 11 11 9 8 15 13 12 12 12 10 6 10 10 7 5 6 11 14 13 11 12 13 14
2 0 3 5 8 6 5 6 6 6 9 7 8 5 9 13 12 8 8 13 10 11 11 11 14 16 12 11 9 9 7 3 7 11 9 10 8 10 11 14 13 11 10 13
5 3 3 4 10 12 7 3 7 7 6 7 5 5 7 6 9 9 9 12 10 10 10 10 14 16 11 10 8 7 4 7 8 8 8 11 10 12 11 13 13 12 9 10
5 5 3 3 3 3 6 7 8 9 8 9 9 7 7 5 5 11 13 11 10 10 11 13 20 16 12 8 7 6 5 9 6 7 7 9 9 7 8 11 11 11 8 6
5 4 1 3 3 4 4 5 5 7 6 8 8 7 7 8 11 9 11 11 10 11 20 23 20 16 10 6 6 5 8 9 8 6 6 5 6 7 6 10 9 9 8 4
1 3 5 1 1 2 4 6 7 9 3 5 10 7 5 4 5 3 8 10 12 21 24 23 18 16 12 5 2 5 8 7 5 5 5 3 7 9 5 9 11 8 8 6
5 5 5 2 3 2 2 6 2 1 7 6 7 4 5 5 5 6 9 10 20 21 19 18 19 16 12 5 1 7 6 4 3 4 4 4 5 6 7 8 13 10 10 8
5 3 4 4 2 1 2 2 3 6 5 8 5 8 9 9 9 9 9 9 19 17 14 14 21 16 12 7 4 6 5 1 1 2 3 5 6 7 9 6 10 13 9 12
1 6 5 5 3 7 3 7 6 8 7 6 7 8 11 10 8 10 8 10 16 18 15 13 19 17 13 11 7 4 2 3 1 2 4 5 8 10 9 11 11 12 7 3
6 4 3 6 4 7 7 5 8 7 7 8 6 6 8 9 9 9 8 10 12 17 12 11 16 16 15 13 10 6 5 6 3 6 7 10 12 15 17 15 14 10 6 6
5 11 10 3 7 6 4 7 10 7 10 9 9 8 7 8 7 8 7 13 15 15 11 14 11 9 12 15 12 8 9 8 6 7 10 14 14 10 13 12 15 14 11 10
2 1 3 2 1 5 2 8 4 5 3 10 9 8 10 10 7 11 12 19 17 15 15 13 10 9 6 8 13 12 13 11 9 9 10 10 10 12 14 17 12 10 11 9
Wind_Direction
272 231 236 228 233 220 182 158 198 103 140 101 105 76 35 96 110 130 85 41 96 111 119 112 103 102 93 76 69 60 51 40 40 31 29 23 26 34 32 30 30 28 49 39
312 248 259 155 236 73 47 94 93 70 100 80 82 129 123 59 121 176 131 141 194 115 113 113 112 109 97 89 78 65 56 42 44 36 32 26 30 34 32 26 24 41 56 41
233 260 209 290 38 72 50 78 49 118 85 53 87 4 3 333 130 189 109 171 200 140 126 108 107 110 104 95 86 71 59 47 45 38 35 34 31 27 30 29 43 31 31 31
262 231 148 65 56 47 62 92 100 158 97 103 309 287 273 285 339 353 287 305 173 117 121 107 101 104 107 106 88 79 58 53 47 43 40 34 35 30 23 23 24 28 21 19
258 30 80 83 68 53 154 121 136 110 83 93 12 98 287 340 313 299 302 273 133 129 107 104 102 97 82 93 101 78 58 62 56 44 35 33 38 31 27 23 17 20 16 13
231 146 108 89 82 78 294 146 58 74 116 47 241 108 276 235 214 326 283 192 129 105 101 102 103 98 98 88 110 75 59 61 60 47 36 41 37 27 22 17 14 10 9 12
343 160 106 83 13 29 16 9 343 17 40 194 146 113 243 218 232 202 211 107 105 107 109 94 83 86 85 87 106 82 63 69 64 45 39 41 36 28 21 14 12 10 11 13
80 332 25 71 56 41 305 119 131 288 163 164 158 46 295 198 213 202 143 107 97 101 106 102 90 76 92 81 90 82 73 85 71 45 39 34 33 24 15 20 20 17 17 21
144 302 312 72 357 88 304 1 232 187 325 93 75 326 335 161 171 138 118 99 109 113 120 115 94 79 102 83 73 88 76 97 75 62 36 36 32 19 14 22 24 27 25 23
33 38 287 174 247 185 237 260 9 2 6 75 358 78 301 269 150 150 128 123 125 118 112 107 96 86 82 90 76 66 58 81 83 58 45 46 33 20 13 21 17 25 22 19
153 137 330 57 5 352 356 13 20 93 64 89 149 219 233 231 168 143 133 130 111 111 115 112 102 92 87 79 82 70 54 84 94 62 52 43 33 25 17 15 16 21 21 18
26 129 94 197 290 323 335 108 91 107 311 303 115 289 266 128 133 110 114 102 105 105 108 113 108 97 95 86 91 76 58 52 113 88 58 48 36 28 27 21 20 16 17 30
18 355 95 343 3 337 292 140 116 144 74 290 98 180 98 84 55 14 124 126 117 112 101 104 105 96 89 95 99 84 65 27 43 109 56 55 46 38 28 32 23 25 17 27
93 49 131 173 210 286 256 179 174 118 69 335 56 102 95 111 122 212 241 140 131 124 116 103 97 99 86 75 105 91 71 35 15 36 54 67 56 38 31 28 20 22 24 21
101 100 352 287 244 250 321 320 105 90 56 87 132 109 150 163 167 199 169 135 122 117 113 112 103 99 93 72 107 93 66 33 15 7 54 93 55 38 29 31 15 18 19 26
33 124 14 288 345 318 229 292 130 124 115 76 97 80 117 145 164 149 171 122 119 119 121 120 111 97 92 85 92 99 52 18 42 3 76 50 31 43 29 30 23 16 14 27
133 110 71 293 47 359 329 2 106 109 93 115 95 139 98 136 155 168 150 126 122 123 123 120 116 112 95 96 86 72 27 80 56 17 72 57 56 40 30 23 22 18 17 22
155 135 145 239 65 225 241 81 81 96 130 113 102 97 111 86 102 92 119 126 120 111 112 115 117 112 102 88 89 56 71 66 74 45 56 62 37 29 27 14 15 15 16 10
141 138 157 137 208 264 66 106 122 118 47 85 92 69 86 105 79 33 80 98 113 114 119 124 124 120 110 92 95 53 88 67 51 47 26 67 31 355 358 10 356 356 0 349
166 126 126 134 335 265 183 105 97 94 56 76 86 50 90 115 79 187 109 102 103 122 129 131 134 134 125 113 116 99 82 71 50 19 351 66 359 336 325 4 341 330 342 325
8 328 166 210 223 74 318 93 61 202 215 122 101 74 98 93 158 151 118 112 119 121 125 141 146 141 140 141 160 127 97 71 64 3 7 11 0 352 337 349 322 322 304 301
101 12 331 356 341 59 254 19 166 188 127 122 114 113 114 125 129 127 125 128 127 132 146 161 152 150 154 153 118 130 106 74 44 6 350 334 307 329 325 329 335 334 319 291
322 182 189 154 232 248 155 147 149 142 146 154 145 147 144 151 164 152 149 151 160 164 172 183 163 160 167 174 176 176 182 195 261 275 301 286 300 296 296 298 312 345 356 327
288 169 240 153 230 201 144 146 152 164 152 153 149 138 143 156 155 155 149 149 145 148 152 146 161 170 179 185 190 198 194 199 244 279 283 291 281 294 285 281 284 297 293 312
198 154 215 76 358 41 38 171 181 181 150 145 152 152 164 162 178 156 152 157 167 163 171 171 172 189 187 191 191 205 211 215 235 253 283 293 296 300 313 291 277 268 280 293
79 228 107 171 192 120 358 29 8 83 141 165 160 164 166 165 181 153 158 164 160 165 169 165 160 167 191 206 207 209 216 222 226 242 277 291 299 305 301 301 306 265 260 292